Wind_Speed
6 7 7 7 8 8 9 6 7 5 7 8 7 7 8 8 9 10 10 10 10 10 9 9 8 7 7 7 7 7 8 9 10 11 12 12 13 14 15 14 14 13 12 11 10 9 8 8 7
5 5 5 6 9 13 10 8 10 10 11 10 10 10 10 10 10 10 9 9 9 9 9 8 7 7 7 7 7 8 9 10 10 11 12 12 13 14 15 16 16 15 14 13 12 11 10 9 8
5 4 5 5 10 8 9 14 12 11 13 12 12 12 11 11 11 10 10 9 9 9 8 7 7 7 7 8 8 9 10 10 11 12 13 13 14 15 16 17 17 17 17 16 15 14 13 11 10
5 3 4 6 7 8 12 14 12 10 11 12 12 14 12 12 12 11 11 10 10 9 8 8 7 8 9 10 11 12 13 13 14 14 15 16 16 17 17 18 19 19 19 18 17 16 16 15 14
7 2 2 9 6 9 14 16 12 9 12 12 15 15 13 13 12 13 13 12 12 11 10 10 10 11 12 13 14 15 17 18 18 19 19 19 20 21 21 21 21 21 21 21 20 19 19 18 18
9 5 1 3 7 10 12 13 9 11 11 11 14 17 14 13 13 14 14 14 13 13 14 14 14 14 15 16 18 19 20 21 22 23 23 24 24 24 25 24 24 24 23 23 22 22 21 21 21
12 10 5 6 7 14 17 14 11 12 14 12 14 18 16 12 13 15 15 16 16 15 16 17 17 18 18 20 21 22 22 24 25 26 27 27 27 27 28 28 27 27 26 25 25 24 24 24 24
14 12 7 4 7 14 17 16 16 16 17 18 20 21 17 14 15 16 16 17 19 19 19 20 20 21 21 22 22 23 24 25 26 27 28 29 29 29 30 30 30 30 29 28 27 26 26 26 26
15 12 6 2 11 17 20 21 19 18 19 21 20 20 19 17 17 18 18 19 21 22 22 23 23 23 23 24 24 25 25 26 27 28 29 29 30 30 31 31 31 31 31 31 30 29 28 28 27
15 13 7 8 20 26 26 26 23 20 23 24 22 20 21 21 20 21 21 22 23 25 25 25 26 26 26 26 26 27 27 28 29 29 30 29 30 30 31 31 31 32 33 32 32 32 31 30 29
17 16 14 17 23 27 27 23 23 23 26 27 26 25 25 24 24 24 25 25 25 26 27 27 28 28 29 29 29 29 30 30 30 31 31 30 31 31 32 32 31 31 33 33 33 34 33 32 32
19 18 19 22 23 25 23 21 23 24 26 27 27 27 27 27 27 27 27 28 28 28 29 30 29 30 31 32 32 32 32 34 34 34 33 33 32 32 32 32 31 31 33 35 34 34 34 34 33
19 19 20 22 23 23 22 22 23 24 24 24 25 27 28 29 30 30 31 31 31 31 31 32 32 32 33 34 35 34 35 36 37 37 36 35 33 32 33 33 34 33 34 35 35 36 35 34 34
18 18 19 21 20 21 20 21 22 21 22 23 25 27 28 29 30 31 32 32 33 32 33 34 34 34 35 36 36 36 37 38 39 39 38 37 34 33 33 33 34 33 34 35 34 35 36 36 34
15 15 16 17 19 19 19 20 20 20 21 22 23 25 26 27 28 30 31 32 33 33 34 34 34 35 36 37 37 38 39 39 39 39 38 37 36 34 34 34 34 34 35 36 36 35 36 37 36
7 8 12 19 17 14 15 19 20 20 20 21 21 23 24 25 26 27 29 30 31 32 32 34 35 36 37 38 39 40 39 39 38 37 36 36 36 35 34 33 33 34 35 35 35 35 35 36 37
5 12 22 27 16 10 13 20 21 21 21 20 20 20 21 21 22 23 25 26 27 29 31 33 35 37 38 39 40 39 39 39 38 37 36 35 35 35 34 34 34 34 34 33 32 33 34 34 35
18 22 24 20 8 9 16 22 22 22 21 20 19 18 18 18 19 21 23 24 26 28 31 33 35 36 38 38 38 38 38 38 38 36 35 35 36 36 35 35 34 34 33 31 31 33 33 33 34
10 11 12 7 10 14 20 23 22 21 20 18 17 17 17 18 20 22 23 25 27 29 31 32 34 36 37 37 37 37 37 37 38 36 36 36 36 37 37 36 36 35 33 32 31 31 32 33 33
10 11 14 18 20 20 19 19 18 16 15 15 16 16 17 18 20 22 23 25 27 29 31 32 34 35 36 36 36 36 37 37 38 38 37 37 37 38 38 38 37 36 35 34 32 31 31 31 33
11 15 18 19 18 15 13 15 13 11 11 12 14 15 17 19 20 22 24 26 29 30 32 33 34 35 36 37 37 37 38 38 39 39 39 38 39 40 41 40 40 39 37 36 34 32 32 32 32
13 15 15 13 15 12 15 19 13 8 8 12 15 18 20 21 22 24 26 28 30 31 33 33 34 35 37 38 39 39 40 40 40 41 41 41 41 41 41 42 42 42 40 38 37 35 35 34 33
10 11 12 14 16 19 24 22 12 10 11 15 17 20 21 22 24 25 27 28 30 32 33 35 35 36 37 39 40 41 41 41 42 42 42 41 41 42 42 42 42 43 43 41 40 39 38 37 36
8 10 14 18 21 23 21 16 10 11 17 20 20 21 22 23 24 26 27 29 30 32 34 35 37 37 39 40 41 42 41 41 41 41 41 41 41 42 42 41 41 41 42 42 42 41 40 40 39
6 8 15 21 24 22 17 14 11 15 21 23 24 24 24 25 26 27 28 30 32 34 35 36 37 38 40 40 41 41 41 40 40 40 41 41 41 41 42 41 40 40 40 41 42 43 43 43 42
7 8 13 17 21 25 19 17 18 19 20 21 23 24 25 26 27 29 30 32 33 34 36 37 38 39 40 40 40 40 40 40 40 40 41 41 41 41 41 42 42 41 41 42 42 43 44 44 44
8 8 10 10 12 16 20 21 20 20 20 21 23 24 25 27 28 30 31 33 34 36 37 38 39 39 40 40 39 40 40 40 40 40 41 41 41 41 42 43 44 44 45 45 45 45 45 46 47
9 8 7 4 8 8 13 20 21 22 22 23 24 25 27 28 30 31 32 34 36 37 38 39 40 40 40 40 40 40 40 40 40 40 41 41 42 42 43 45 46 48 49 49 49 50 49 49 50
9 9 8 6 7 6 9 22 22 22 23 24 26 27 29 30 31 32 34 35 37 38 40 41 41 41 41 40 40 40 40 40 40 41 42 42 43 44 46 47 49 50 52 53 54 55 55 54 54
10 10 10 10 10 9 9 22 23 23 24 26 27 28 29 31 32 34 35 37 38 40 41 42 42 42 42 42 42 41 41 40 40 41 42 43 44 46 48 50 52 53 55 57 59 60 60 60 59
Wind_Direction
14 22 30 38 24 28 48 12 315 307 313 323 324 315 305 306 306 298 294 297 301 300 303 307 309 310 312 318 326 329 329 328 326 322 320 318 316 316 316 317 317 319 322 325 328 335 341 345 345
359 10 24 31 21 11 0 331 311 316 319 327 325 315 311 315 311 305 298 299 301 303 304 307 309 313 317 320 325 327 325 323 321 319 316 314 312 311 311 312 311 312 313 315 315 316 320 324 326
335 348 27 36 37 348 315 305 308 324 323 325 320 312 316 314 311 305 299 298 302 305 304 309 311 315 319 323 326 324 321 319 317 315 312 309 308 307 307 307 306 305 305 305 305 304 304 305 306
316 342 47 52 33 319 301 299 309 320 315 322 313 308 316 313 309 305 301 297 299 303 307 310 312 316 320 321 320 318 316 312 310 308 306 304 302 301 301 301 301 300 299 298 297 296 294 293 292
296 296 74 29 340 292 299 307 318 315 310 309 302 304 311 310 307 304 302 299 300 301 303 305 308 312 313 313 312 311 310 308 306 304 302 300 298 297 297 296 294 293 292 291 289 288 287 286 284
290 258 117 26 299 284 289 301 306 299 294 290 295 298 301 301 303 302 301 300 298 300 301 302 304 305 306 308 309 308 307 306 304 302 300 298 297 294 293 292 290 290 288 287 284 281 280 280 280
288 273 227 187 258 285 285 284 283 279 277 280 285 287 290 294 298 299 301 303 301 301 301 300 300 302 305 308 308 306 306 306 305 302 300 297 294 292 291 289 288 287 286 285 282 277 275 275 274
285 278 255 189 261 266 270 277 275 270 277 279 280 282 287 296 296 297 298 300 300 300 300 300 301 302 303 305 306 305 304 305 305 303 300 297 293 290 290 288 286 285 284 282 280 277 272 271 271
280 272 260 225 253 242 254 263 270 276 276 272 272 282 288 293 294 294 295 296 297 298 298 299 301 300 301 302 303 303 304 305 304 303 301 297 293 291 290 288 285 284 282 280 278 276 271 268 267
273 264 230 240 248 241 248 262 269 267 268 271 275 280 287 290 291 291 292 293 293 295 297 299 300 300 300 301 301 302 302 303 303 303 302 298 293 290 289 287 286 283 280 278 277 276 272 268 265
264 254 229 232 252 254 254 264 266 263 267 272 276 282 285 286 286 287 289 289 289 292 295 297 298 299 300 301 302 302 302 301 301 301 301 299 297 294 291 288 287 285 282 280 277 275 273 270 264
262 253 242 242 252 258 257 254 261 266 267 270 273 276 280 281 282 283 283 284 286 288 290 292 294 297 299 301 301 301 301 301 300 299 298 297 297 294 292 292 291 287 285 281 278 276 274 271 266
261 256 252 253 258 262 262 257 260 265 269 270 270 272 274 276 278 279 279 280 282 284 287 289 291 293 296 298 299 299 298 298 298 297 296 294 293 292 291 291 291 290 288 284 279 276 273 271 268
253 257 259 260 260 261 259 258 263 269 266 265 267 268 271 273 274 275 278 279 281 282 284 286 288 290 293 296 296 297 298 296 294 293 292 291 289 289 289 290 290 291 290 287 281 275 271 269 266
261 262 263 265 263 262 260 263 269 269 267 266 266 267 270 272 273 274 276 278 280 283 284 286 288 290 292 294 294 295 295 295 292 290 288 287 287 287 287 288 290 289 290 286 282 278 272 268 265
265 266 255 251 249 257 270 274 273 275 275 273 271 269 271 273 274 276 277 278 280 282 283 285 288 289 291 292 293 293 293 293 292 289 286 284 284 285 286 286 287 288 288 286 281 275 271 265 262
250 244 238 239 242 255 274 280 279 281 282 280 278 275 274 275 277 278 279 280 282 283 284 286 287 288 289 290 290 290 290 291 291 290 287 284 284 284 284 285 285 287 287 285 279 272 267 263 261
244 236 240 238 263 263 278 286 284 285 285 285 284 283 281 280 280 280 281 281 283 285 286 287 288 288 289 290 289 290 290 290 290 288 286 285 284 283 284 284 283 285 285 282 283 272 264 261 259
298 308 303 283 275 274 285 289 289 286 287 288 287 287 285 284 283 283 284 284 285 286 287 288 290 290 291 291 291 290 290 290 289 288 286 285 283 282 282 283 282 282 283 281 281 275 264 259 256
269 279 273 275 282 285 287 289 288 288 289 292 294 293 291 290 288 289 289 289 289 291 291 291 293 294 294 293 293 292 292 291 290 289 287 285 284 283 282 282 282 280 279 278 276 276 269 263 258
248 249 257 276 289 285 281 277 269 284 293 302 303 302 300 297 296 296 296 295 296 296 295 296 297 297 297 296 295 295 294 293 292 291 289 287 285 283 282 281 280 279 278 276 274 272 271 268 262
257 257 260 278 286 282 271 270 277 297 306 313 313 312 309 305 303 302 301 301 302 301 301 301 301 301 300 300 299 298 297 295 293 292 291 289 286 284 282 280 279 278 277 274 272 269 267 266 264
288 284 272 277 279 275 273 274 279 315 325 329 323 319 319 314 310 309 308 308 308 307 307 307 307 305 304 302 301 300 299 297 295 294 292 290 288 286 284 282 279 277 276 274 271 268 265 263 262
285 297 302 298 290 283 284 292 310 343 343 337 331 326 324 321 318 317 315 314 313 313 313 312 311 310 308 306 304 303 301 299 297 295 294 292 290 289 287 284 281 278 276 273 271 268 265 262 260
281 308 310 316 328 331 339 341 341 352 343 338 334 331 328 326 324 323 322 321 320 318 317 316 314 313 311 308 306 304 302 300 298 296 294 292 291 289 288 286 283 280 277 275 271 268 265 262 259
313 315 316 324 330 331 343 352 349 344 339 335 331 330 328 328 328 327 326 325 323 322 320 319 317 315 313 311 308 304 302 299 297 295 293 291 289 287 286 284 283 281 278 276 273 270 267 262 258
303 291 294 316 331 337 343 336 336 337 337 336 333 331 330 330 329 328 328 328 327 325 323 321 319 318 315 312 309 305 302 299 296 293 292 290 288 286 285 283 281 280 277 275 273 271 268 264 259
328 320 316 331 331 343 336 318 323 328 332 332 331 330 330 330 329 329 328 328 327 326 324 323 321 319 316 313 309 306 302 299 295 292 290 289 288 287 285 283 281 279 277 274 272 269 267 264 260
325 330 334 328 316 322 325 307 321 324 328 328 328 328 328 328 328 328 327 327 326 326 324 324 322 320 317 314 311 308 304 301 297 294 292 290 288 286 285 283 281 278 276 273 271 268 265 262 259
329 328 330 331 331 334 331 305 318 324 327 327 326 326 326 327 327 327 327 327 326 326 325 324 323 321 319 316 313 310 307 304 300 297 295 293 291 289 286 284 281 278 275 272 270 267 264 261 257
Height
5921 5921 5921 5922 5922 5919 5917 5919 5919 5918 5918 5917 5916 5915 5914 5914 5915 5916 5913 5912 5912 5911 5911 5910 5910 5910 5909 5909 5908 5908 5907 5907 5906 5906 5905 5905 5904 5904 5903 5902 5901 5901 5900 5900 5899 5898 5897 5897 5896
5921 5922 5922 5922 5921 5919 5919 5919 5919 5918 5917 5916 5915 5914 5913 5913 5913 5913 5912 5912 5912 5911 5910 5909 5909 5909 5908 5908 5907 5907 5906 5906 5905 5905 5905 5904 5903 5903 5902 5901 5900 5900 5899 5899 5899 5898 5897 5897 5896
5921 5922 5922 5923 5921 5923 5921 5920 5918 5918 5916 5915 5914 5913 5913 5912 5912 5912 5911 5911 5911 5910 5909 5909 5908 5908 5907 5907 5906 5906 5905 5904 5904 5904 5903 5903 5902 5901 5900 5900 5899 5898 5898 5898 5897 5897 5897 5896 5896
5921 5922 5923 5923 5922 5923 5921 5919 5917 5917 5915 5914 5913 5911 5911 5911 5911 5910 5909 5910 5909 5909 5908 5908 5907 5907 5906 5905 5905 5904 5903 5903 5902 5902 5901 5901 5900 5899 5898 5898 5897 5896 5896 5896 5895 5895 5895 5895 5895
5919 5921 5922 5922 5924 5924 5921 5918 5917 5917 5915 5912 5910 5909 5909 5909 5909 5908 5908 5908 5908 5907 5907 5906 5906 5905 5904 5904 5903 5902 5901 5900 5900 5899 5898 5898 5897 5896 5896 5895 5894 5893 5893 5893 5893 5893 5893 5893 5893
5918 5919 5920 5924 5926 5924 5921 5919 5918 5915 5913 5911 5908 5907 5907 5907 5907 5906 5906 5905 5905 5905 5905 5904 5903 5903 5902 5901 5901 5899 5898 5897 5896 5896 5895 5894 5893 5892 5891 5891 5890 5890 5889 5889 5889 5889 5890 5890 5890
5916 5917 5917 5921 5927 5924 5919 5917 5916 5913 5911 5909 5906 5904 5904 5903 5904 5904 5903 5903 5902 5903 5902 5901 5901 5900 5899 5899 5898 5896 5895 5894 5892 5891 5890 5889 5888 5887 5886 5886 5885 5885 5885 5885 5885 5885 5886 5886 5886
5912 5914 5915 5918 5925 5923 5917 5914 5911 5909 5908 5907 5905 5902 5902 5901 5902 5902 5901 5901 5899 5900 5899 5899 5898 5897 5896 5895 5894 5893 5891 5890 5888 5886 5885 5883 5882 5881 5880 5880 5879 5879 5879 5879 5880 5880 5880 5881 5882
5908 5911 5912 5917 5920 5918 5913 5910 5908 5906 5904 5902 5901 5899 5900 5900 5900 5899 5899 5898 5897 5896 5896 5895 5895 5894 5893 5892 5890 5889 5887 5886 5884 5882 5879 5878 5876 5875 5874 5873 5872 5872 5872 5873 5873 5874 5875 5875 5876
5905 5906 5908 5913 5911 5909 5907 5905 5904 5903 5900 5898 5897 5896 5897 5898 5897 5896 5895 5894 5893 5892 5891 5891 5890 5890 5888 5887 5886 5884 5883 5881 5879 5877 5874 5872 5870 5869 5868 5867 5866 5865 5865 5865 5866 5867 5868 5869 5870
5900 5901 5902 5904 5903 5902 5902 5901 5899 5898 5896 5895 5894 5893 5894 5894 5893 5892 5891 5890 5889 5888 5888 5887 5886 5885 5884 5882 5881 5880 5878 5876 5874 5872 5869 5866 5865 5863 5861 5860 5860 5858 5858 5858 5858 5859 5860 5861 5863
5895 5895 5896 5896 5896 5895 5895 5895 5893 5893 5892 5892 5890 5888 5889 5888 5888 5887 5886 5885 5884 5884 5883 5883 5882 5881 5879 5877 5876 5874 5872 5870 5868 5866 5863 5861 5859 5857 5855 5853 5852 5852 5851 5850 5850 5851 5852 5854 5856
5889 5890 5890 5890 5890 5890 5890 5889 5888 5887 5887 5887 5887 5886 5885 5884 5883 5882 5881 5880 5880 5879 5879 5878 5877 5876 5874 5872 5870 5868 5866 5864 5861 5858 5857 5854 5852 5850 5849 5847 5845 5844 5843 5843 5842 5843 5844 5845 5847
5885 5886 5886 5886 5886 5885 5884 5883 5883 5883 5883 5883 5882 5881 5880 5879 5878 5877 5876 5875 5875 5874 5873 5872 5871 5870 5868 5866 5864 5862 5859 5857 5854 5851 5849 5847 5846 5844 5842 5841 5839 5837 5835 5835 5834 5834 5835 5837 5839
5881 5882 5882 5882 5881 5880 5880 5879 5878 5878 5878 5877 5877 5876 5875 5874 5873 5873 5871 5870 5870 5869 5868 5866 5865 5864 5862 5860 5857 5855 5852 5849 5846 5844 5841 5839 5837 5836 5835 5834 5832 5831 5828 5826 5825 5826 5827 5828 5830
5878 5879 5880 5878 5876 5875 5878 5875 5874 5873 5873 5873 5872 5871 5870 5869 5868 5868 5867 5866 5865 5864 5862 5860 5859 5857 5855 5852 5849 5847 5844 5841 5838 5835 5833 5831 5830 5829 5827 5826 5825 5823 5821 5819 5817 5817 5818 5820 5822
5877 5876 5874 5871 5871 5872 5872 5871 5870 5869 5869 5868 5867 5866 5865 5864 5864 5863 5862 5861 5860 5858 5856 5854 5852 5850 5847 5845 5842 5839 5836 5833 5830 5827 5825 5824 5822 5820 5819 5818 5817 5815 5814 5812 5810 5810 5811 5812 5814
5871 5869 5867 5865 5866 5868 5869 5868 5866 5866 5864 5863 5862 5862 5861 5860 5859 5858 5857 5856 5854 5853 5851 5848 5846 5843 5840 5837 5834 5831 5828 5825 5822 5820 5818 5816 5814 5812 5811 5810 5809 5808 5806 5804 5803 5803 5803 5805 5806
5869 5868 5862 5861 5865 5865 5866 5865 5863 5862 5860 5859 5858 5858 5857 5856 5855 5854 5852 5851 5849 5847 5844 5842 5839 5836 5833 5829 5826 5823 5820 5817 5814 5811 5810 5808 5806 5804 5803 5802 5801 5800 5798 5797 5796 5795 5796 5797 5798
5871 5870 5867 5864 5867 5866 5864 5862 5859 5858 5857 5856 5855 5854 5853 5852 5851 5849 5847 5845 5843 5841 5838 5835 5832 5828 5825 5821 5817 5815 5812 5809 5805 5803 5801 5799 5797 5795 5794 5793 5792 5791 5790 5790 5789 5788 5788 5789 5790
5869 5868 5867 5865 5865 5863 5860 5858 5853 5854 5854 5853 5852 5851 5850 5848 5846 5844 5842 5839 5836 5833 5830 5827 5824 5820 5816 5812 5809 5806 5803 5800 5796 5793 5791 5790 5788 5786 5784 5783 5782 5782 5782 5782 5781 5782 5782 5782 5783
5866 5865 5865 5862 5859 5856 5855 5851 5850 5850 5849 5849 5849 5848 5846 5844 5841 5839 5836 5833 5829 5826 5822 5819 5815 5811 5807 5803 5799 5796 5792 5790 5787 5783 5781 5779 5777 5775 5774 5773 5772 5771 5772 5772 5773 5774 5774 5775 5775
5863 5863 5862 5859 5856 5854 5849 5844 5843 5844 5844 5845 5845 5844 5841 5839 5836 5833 5830 5826 5823 5818 5814 5810 5807 5803 5798 5794 5789 5786 5782 5779 5775 5772 5770 5768 5766 5764 5762 5762 5761 5761 5761 5761 5762 5764 5765 5766 5767
5864 5863 5861 5859 5855 5851 5846 5843 5841 5840 5842 5842 5841 5839 5837 5834 5831 5828 5824 5820 5816 5812 5807 5802 5798 5794 5789 5784 5780 5775 5772 5768 5765 5761 5759 5757 5754 5752 5751 5750 5749 5749 5749 5750 5751 5752 5754 5756 5758
5862 5863 5861 5857 5851 5848 5845 5842 5840 5841 5842 5840 5837 5835 5833 5830 5827 5823 5819 5814 5810 5805 5800 5795 5790 5785 5780 5775 5770 5766 5761 5758 5754 5751 5749 5746 5744 5741 5739 5738 5738 5738 5737 5738 5738 5740 5742 5745 5748
5861 5861 5861 5857 5854 5848 5842 5842 5842 5842 5842 5839 5836 5833 5830 5826 5822 5818 5813 5809 5804 5799 5793 5788 5783 5777 5772 5766 5761 5757 5752 5748 5745 5741 5738 5736 5733 5731 5729 5727 5726 5726 5726 5726 5726 5727 5729 5732 5735
5860 5859 5859 5858 5856 5852 5847 5845 5844 5842 5840 5838 5835 5832 5828 5824 5819 5814 5809 5803 5798 5792 5787 5781 5775 5770 5764 5758 5753 5748 5743 5739 5735 5732 5728 5725 5723 5720 5718 5716 5715 5714 5713 5713 5714 5715 5716 5719 5722
5859 5858 5857 5856 5855 5854 5852 5846 5845 5841 5839 5837 5833 5829 5825 5820 5815 5810 5804 5799 5793 5786 5780 5774 5768 5762 5756 5750 5744 5739 5734 5729 5725 5722 5718 5715 5712 5709 5707 5704 5702 5701 5700 5700 5700 5701 5702 5704 5707
5859 5857 5855 5854 5853 5853 5852 5847 5844 5840 5838 5835 5831 5826 5821 5816 5811 5806 5800 5794 5787 5781 5774 5767 5760 5754 5747 5741 5735 5729 5724 5719 5714 5711 5707 5703 5700 5697 5694 5691 5688 5686 5685 5683 5683 5684 5686 5688 5691
5858 5856 5855 5854 5852 5851 5851 5848 5842 5838 5835 5831 5827 5823 5818 5812 5807 5800 5794 5788 5781 5774 5767 5759 5752 5745 5738 5731 5725 5719 5713 5708 5703 5699 5694 5690 5686 5683 5679 5675 5672 5669 5667 5665 5664 5665 5666 5669 5673